This demonstration page uses our WeatherBlox Daily Observations layout. Learn more.

39.51506, -84.39828

Hourly Observations for November 24, 2019

Temp ( °F °C ) Dew Point ( °F °C ) Humidity (%) Winds ( mph kmh ) Pressure ( in mb ) Visibility ( mi km ) Precip ( " mm )
12:15 am 00:15 Cloudy with Light Snow 33 0.7 32 0.2 97 97 W 8 13 29.82 1010 5 8.0467 0 0
12:35 am 00:35 Cloudy 34 0.9 32 0.1 94 94 WSW 7 11 29.82 1010 10 16.0934 0 0
12:55 am 00:55 Cloudy 34 0.9 32 0 94 94 SW 5 7 29.81 1010 7 11.26538 0 0
1:15 am 01:15 Cloudy with Mist and Fog 34 0.9 32 0.1 94 94 WSW 6 9 29.81 1010 7 11.26538 0 0
1:35 am 01:35 Cloudy with Mist and Fog 33 0.8 32 0.1 95 95 SSW 6 9 29.82 1010 5 8.0467 0 0
1:55 am 01:55 Cloudy with Mist and Fog 34 1.1 33 0.3 94 94 W 10 17 29.81 1010 7 11.26538 0 0
2:15 am 02:15 Cloudy with Mist and Fog 34 1.3 32 0 91 91 W 9 15 29.81 1010 7 11.26538 0 0
2:35 am 02:35 Mostly Cloudy with Mist and Fog 34 1.3 32 0 91 91 WSW 7 11 29.82 1010 7 11.26538 0 0
2:55 am 02:55 Clear with Mist and Fog 34 1 32 -0.1 92 92 WSW 7 11 29.82 1010 7 11.26538 0 0
3:15 am 03:15 Clear with Mist and Fog 33 0.8 31 -0.3 92 92 WSW 8 13 29.82 1010 7 11.26538 0 0
3:35 am 03:35 Partly Cloudy with Mist and Fog 33 0.7 31 -0.3 93 93 SW 7 11 29.82 1010 7 11.26538 0 0
3:55 am 03:55 Mostly Cloudy with Mist and Fog 33 0.7 31 -0.3 93 93 WSW 10 17 29.82 1010 7 11.26538 0 0
4:15 am 04:15 Mostly Cloudy with Mist and Fog 33 0.8 31 -0.3 92 92 WSW 9 15 29.82 1010 7 11.26538 0 0
4:35 am 04:35 Clear with Mist and Fog 32 0.2 31 -0.8 93 93 SW 7 11 29.82 1010 5 8.0467 0 0
4:55 am 04:55 Clear with Mist and Fog 31 -0.4 30 -1.1 95 95 SSW 7 11 29.84 1010 5 8.0467 0 0
5:15 am 05:15 Clear with Mist and Fog 32 -0.2 30 -0.9 95 95 S 7 11 29.84 1010 5 8.0467 0 0
5:35 am 05:35 Clear with Mist and Fog 31 -0.4 30 -1.1 95 95 SSW 7 11 29.84 1010 5 8.0467 0 0
5:55 am 05:55 Clear with Mist and Fog 32 -0.2 30 -0.9 95 95 SSW 7 11 29.84 1010 5 8.0467 0 0
6:15 am 06:15 Clear with Mist and Fog 31 -0.6 30 -1.3 95 95 SSW 8 13 29.83 1010 5 8.0467 0 0
6:35 am 06:35 Clear with Mist and Fog 31 -0.8 29 -1.4 96 96 SSW 7 11 29.84 1010 5 8.0467 0 0
6:55 am 06:55 Clear with Mist and Fog 30 -0.9 29 -1.4 96 96 SSW 8 13 29.85 1011 5 8.0467 0 0
7:15 am 07:15 Clear with Mist and Fog 31 -0.7 30 -1.2 96 96 SSW 8 13 29.85 1011 4 6.43736 0 0
7:35 am 07:35 Sunny with Mist and Fog 31 -0.7 30 -1.2 96 96 SSW 8 13 29.86 1011 3 4.82802 0 0
7:55 am 07:55 Partly Cloudy with Mist and Fog 31 -0.3 31 -0.7 97 97 SSW 8 13 29.86 1011 3 4.82802 0 0
8:15 am 08:15 Mostly Cloudy with Mist and Fog 32 0.1 31 -0.4 96 96 SW 8 13 29.87 1012 3.5 5.63269 0 0
8:35 am 08:35 Cloudy with Mist and Fog 33 0.4 32 -0.2 96 96 SSW 12 19 29.87 1012 3.5 5.63269 0 0
8:55 am 08:55 Cloudy with Mist and Fog 33 0.7 32 0 95 95 SSW 13 20 29.87 1012 4 6.43736 0 0
9:15 am 09:15 Cloudy with Mist and Fog 34 0.9 32 0.1 94 94 SSW 14 22 29.87 1012 4 6.43736 0 0
9:35 am 09:35 Cloudy with Mist and Fog 35 1.4 33 0.5 94 94 SSW 13 20 29.87 1012 4 6.43736 0 0
9:55 am 09:55 Cloudy with Mist and Fog 35 1.9 33 0.8 93 93 SW 13 20 29.87 1012 5 8.0467 0 0
10:15 am 10:15 Cloudy with Mist and Fog 36 2.4 34 1.2 92 92 SW 9 15 29.87 1011 5 8.0467 0 0
10:35 am 10:35 Cloudy with Mist and Fog 37 2.7 35 1.4 91 91 SW 10 17 29.87 1011 5 8.0467 0 0
10:55 am 10:55 Cloudy with Mist and Fog 38 3.3 35 1.7 89 89 SW 14 22 29.87 1011 5 8.0467 0 0
11:15 am 11:15 Cloudy with Mist and Fog 39 3.8 36 2.1 89 89 SSW 16 26 29.85 1011 7 11.26538 0 0
11:35 am 11:35 Cloudy with Mist and Fog 40 4.2 36 2.3 88 88 SW 12 19 29.84 1011 7 11.26538 0 0
11:55 am 11:55 Cloudy with Mist and Fog 40 4.7 36 2.4 85 85 SSW 13 20 29.83 1010 7 11.26538 0 0
12:15 pm 12:15 Cloudy 43 5.9 38 3.2 83 83 SW 12 19 29.82 1010 10 16.0934 0 0
12:35 pm 12:35 Mostly Cloudy 43 6.2 37 2.5 77 77 SW 15 24 29.81 1009 10 16.0934 0 0
12:55 pm 12:55 Mostly Cloudy 46 7.7 37 2.9 72 72 SW 15 24 29.78 1009 10 16.0934 0 0
1:15 pm 13:15 Partly Cloudy 45 7.3 36 2.1 70 70 WSW 15 24 29.79 1009 10 16.0934 0 0
1:35 pm 13:35 Mostly Cloudy 46 7.8 36 2 67 67 WSW 16 26 29.79 1009 10 16.0934 0 0
1:55 pm 13:55 Partly Cloudy 48 8.8 36 2.2 64 64 SW 16 26 29.79 1009 10 16.0934 0 0
2:15 pm 14:15 Partly Cloudy 48 8.7 36 2 63 63 SW 14 22 29.79 1009 10 16.0934 0 0
2:35 pm 14:35 Partly Cloudy 47 8.2 35 1.9 65 65 WSW 14 22 29.79 1009 10 16.0934 0 0
2:55 pm 14:55 Sunny 48 9 35 1.8 61 61 WSW 17 28 29.78 1009 10 16.0934 0 0
3:15 pm 15:15 Sunny 48 9.1 35 1.9 61 61 SW 12 19 29.78 1009 10 16.0934 0 0
3:35 pm 15:35 Sunny 48 9.1 35 1.9 61 61 SW 13 20 29.77 1008 10 16.0934 0 0
3:55 pm 15:55 Sunny 48 8.9 35 1.9 62 62 SW 12 19 29.77 1008 10 16.0934 0 0
4:15 pm 16:15 Sunny 48 8.7 35 1.9 63 63 SW 10 17 29.77 1008 10 16.0934 0 0
4:35 pm 16:35 Sunny 47 8.1 35 1.8 65 65 WSW 10 17 29.77 1008 10 16.0934 0 0
4:55 pm 16:55 Sunny 46 7.6 35 1.7 67 67 SW 9 15 29.77 1008 10 16.0934 0 0
5:15 pm 17:15 Sunny 43 6.1 35 1.6 73 73 SW 7 11 29.78 1008 10 16.0934 0 0
5:35 pm 17:35 Clear 43 6 34 1.3 72 72 WSW 6 9 29.8 1009 10 16.0934 0 0
5:55 pm 17:55 Clear 42 5.5 35 1.5 76 76 SSW 5 7 29.8 1009 10 16.0934 0 0
6:15 pm 18:15 Clear 41 4.9 34 1 76 76 S 3 6 29.79 1009 10 16.0934 0 0
6:35 pm 18:35 Clear 38 3.4 35 1.9 90 90 SSW 3 6 29.81 1009 10 16.0934 0 0
6:55 pm 18:55 Clear 36 2.4 35 1.4 93 93 SSW 5 7 29.81 1009 10 16.0934 0 0
7:15 pm 19:15 Clear 35 1.9 33 0.8 93 93 SW 6 9 29.82 1010 10 16.0934 0 0
7:35 pm 19:35 Clear 38 3.5 34 1.1 84 84 S 9 15 29.81 1009 10 16.0934 0 0
7:55 pm 19:55 Clear 36 2.3 32 0.1 86 86 W 5 7 29.82 1010 10 16.0934 0 0
8:15 pm 20:15 Clear 36 2.2 33 0.5 89 89 SW 3 6 29.82 1010 10 16.0934 0 0
8:35 pm 20:35 Clear 35 1.6 33 0.7 94 94 Calm 29.83 1010 10 16.0934 0 0
8:55 pm 20:55 Clear 36 2.1 34 1.2 94 94 SSW 3 6 29.83 1010 10 16.0934 0 0
9:15 pm 21:15 Clear 31 -0.3 29 -1.5 92 92 SSW 5 7 29.83 1010 10 16.0934 0 0
9:35 pm 21:35 Clear 35 1.9 32 0.2 89 89 WSW 5 7 29.82 1010 10 16.0934 0 0
9:55 pm 21:55 Clear 34 0.9 32 0 94 94 SSW 5 7 29.82 1010 10 16.0934 0 0
10:15 pm 22:15 Clear with Mist and Fog 32 0.2 31 -0.4 96 96 SSW 6 9 29.83 1010 7 11.26538 0 0
10:35 pm 22:35 Clear with Mist and Fog 29 -1.5 28 -2.2 95 95 SSW 3 6 29.83 1010 7 11.26538 0 0
10:55 pm 22:55 Clear 31 -0.6 30 -0.9 98 98 SW 6 9 29.83 1010 7 11.26538 0 0
11:15 pm 23:15 Clear with Mist and Fog 29 -1.5 29 -1.9 97 97 SSW 6 9 29.83 1010 7 11.26538 0 0
11:35 pm 23:35 Clear with Mist and Fog 32 0.2 32 0 99 99 SW 5 7 29.81 1010 7 11.26538 0 0
11:55 pm 23:55 Clear 33 0.8 33 0.5 98 98 SW 3 6 29.82 1010 7 11.26538 0 0

Powered by AerisWeather